Weather History for North Adams, MA

Change the Weather History Date:

Thursday, January 17, 2013

  Actual Average Record
Temperature  
Mean Temperature 28 °F -  
Max Temperature 36 °F 26 °F 46 °F (2012)
Min Temperature 21 °F 10 °F -11 °F (2009)
Degree Days  
Heating Degree Days 36    
Moisture  
Dew Point 18 °F    
Average Humidity 63    
Maximum Humidity 88    
Minimum Humidity 44    
Precipitation  
Precipitation 0.00 in - - ()
Sea Level Pressure  
Sea Level Pressure 29.99 in    
Wind  
Wind Speed 7 mph (West)    
Max Wind Speed 17 mph    
Max Gust Speed 28 mph    
Visibility 10 miles    
Events Snow    
Averages and records for this station are not official NWS values.
T = Trace of Precipitation, MM = Missing Value Source: NWS Daily Summary

Daily Weather History Graph

Daily Weather History Graph

Search for Another Location

Airport:

Trip Planner

Search our weather history database for the weather conditions in past years. The results will help you decide how hot, cold, wet, or windy it might be!

Date:

Astronomy

Jan. 17, 2013 Rise Set
Actual Time 7:19 AM EST 4:47 PM EST
Civil Twilight 6:47 AM EST 5:18 PM EST
Nautical Twilight 6:13 AM EST 5:52 PM EST
Astronomical Twilight 5:39 AM EST 6:26 PM EST
Moon 10:14 AM EST (1/17) 11:46 PM EST (1/17)
Length of Visible Light 10h 30m
Length of Day
9h 28m
Waxing Crescent, 37% of the Moon is Illuminated
Jan 17
Waxing Crescent
Jan 18
First Quarter
Jan 26
Full
Feb 3
Last Quarter
Feb 10
New

Hourly Weather History & Observations

Time (EST) Temp. Windchill Dew Point Humidity Pressure Visibility Wind Dir Wind Speed Gust Speed Precip Events Conditions
12:52 AM 24.1 °F - 21.0 °F 88% 29.88 in 8.0 mi Calm Calm - N/A   Clear
1:52 AM 23.0 °F - 19.0 °F 85% 29.89 in 9.0 mi Calm Calm - N/A   Clear
2:52 AM 23.0 °F - 19.0 °F 85% 29.89 in 9.0 mi Calm Calm - N/A   Overcast
3:52 AM 23.0 °F - 19.9 °F 88% 29.88 in 9.0 mi Calm Calm - N/A   Mostly Cloudy
4:52 AM 30.9 °F 23.5 °F 24.1 °F 76% 29.88 in 10.0 mi West 8.1 mph - N/A   Overcast
5:52 AM 33.1 °F 23.0 °F 23.0 °F 66% 29.89 in 10.0 mi West 15.0 mph 19.6 mph N/A   Overcast
6:52 AM 33.1 °F 24.4 °F 23.0 °F 66% 29.91 in 10.0 mi West 11.5 mph 20.7 mph N/A   Overcast
7:52 AM 33.1 °F 23.9 °F 23.0 °F 66% 29.94 in 10.0 mi West 12.7 mph - N/A   Overcast
8:47 AM 33.8 °F 25.3 °F 24.8 °F 70% 29.94 in 10.0 mi West 11.5 mph 18.4 mph N/A   Overcast
8:52 AM 34.0 °F 25.5 °F 24.1 °F 67% 29.97 in 10.0 mi West 11.5 mph - N/A   Mostly Cloudy
9:09 AM 35.6 °F 25.5 °F 24.8 °F 65% 29.93 in 10.0 mi West 17.3 mph 23.0 mph N/A   Scattered Clouds
9:52 AM 36.0 °F 27.1 °F 24.1 °F 62% 29.96 in 10.0 mi West 13.8 mph 24.2 mph N/A   Mostly Cloudy
10:03 AM 35.6 °F 25.5 °F 24.8 °F 65% 29.94 in 10.0 mi West 17.3 mph 21.9 mph N/A   Mostly Cloudy
10:52 AM 36.0 °F 26.3 °F 24.1 °F 62% 29.99 in 10.0 mi West 16.1 mph 25.3 mph N/A   Mostly Cloudy
11:52 AM 36.0 °F 26.3 °F 23.0 °F 59% 29.99 in 10.0 mi West 16.1 mph 23.0 mph N/A   Scattered Clouds
12:52 PM 35.1 °F 26.4 °F 21.9 °F 59% 30.01 in 7.0 mi West 12.7 mph 27.6 mph 0.00 in Snow Light Snow
1:52 PM 34.0 °F 26.6 °F 18.0 °F 52% 30.02 in 10.0 mi WNW 9.2 mph 18.4 mph 0.00 in   Overcast
2:52 PM 32.0 °F 22.5 °F 16.0 °F 52% 30.04 in 10.0 mi West 12.7 mph 20.7 mph N/A   Partly Cloudy
3:52 PM 30.9 °F 25.2 °F 15.1 °F 52% 30.06 in 10.0 mi Variable 5.8 mph 16.1 mph N/A   Partly Cloudy
4:52 PM 28.9 °F 20.4 °F 16.0 °F 58% 30.08 in 10.0 mi West 9.2 mph - N/A   Mostly Cloudy
5:52 PM 27.0 °F 18.7 °F 9.0 °F 47% 30.11 in 10.0 mi West 8.1 mph - N/A   Overcast
6:52 PM 25.0 °F 15.5 °F 9.0 °F 51% 30.14 in 10.0 mi WSW 9.2 mph - N/A   Overcast
7:52 PM 24.1 °F 13.7 °F 7.0 °F 48% 30.15 in 10.0 mi West 10.4 mph - N/A   Overcast
9:52 PM 21.9 °F 14.5 °F 3.0 °F 44% 30.10 in 10.0 mi WNW 5.8 mph - N/A   Partly Cloudy
10:52 PM 21.9 °F - 3.9 °F 46% 30.07 in 10.0 mi Calm Calm - N/A   Mostly Cloudy
11:52 PM 21.9 °F 11.0 °F 5.0 °F 48% 30.08 in 10.0 mi West 10.4 mph - N/A   Overcast